Weather in Ghadames

Libya     30°07′31″N   9°29′22″E
temp.,
°C
wind,
m/s
gust,
m/s
humid.,
%
clouds,
%
prec.,
mm/h
press.,
hPa
HPBL,
m
15 april, thu
thu1523:00+23ene5821100 0.0 1013104
02:00+22ese7132187 0.0 1012251
05:00+20ese7132724 0.0 1011230
08:00+20ese815295 0.0 1011347
11:00+27se11142039 0.0 1010823
14:00+35sse10111117 0.1 10061691
17:00+38sw1014781 0.0 10014477
20:00+34sw69899 0.0 100089
16 april, fri
fri1623:00+29s691286 0.0 100296
02:00+29s7131624 0.0 1002164
05:00+27ssw71215100 0.0 1002150
08:00+26sw713136 0.0 1003207
11:00+32sw1118914 0.0 10041930
14:00+34wsw131880 0.0 10022811
17:00+34wsw1318120 0.0 10013130
20:00+30wnw913140 0.0 1003339
17 april, sat
sat1723:00+25nw610265 0.0 1005224
02:00+22nnw34385 0.0 100670
05:00+19wnw11454 0.0 100711
08:00+16nw68510 0.0 1009245
11:00+21wnw66360 0.0 1010682
14:00+25w89280 0.0 10101405
17:00+25wnw910200 0.0 10091921
20:00+23wnw710170 0.0 1011292
18 april, sun
sun1823:00+20nw611254 0.0 1014276
02:00+17nnw48390 0.0 1014158
05:00+15ne22414 0.0 101412
08:00+15sse34575 0.0 1016113
11:00+22sw58180 0.0 10161502
14:00+25w913140 0.0 10152233
17:00+24wnw1112140 0.0 10152070
20:00+20nw811130 0.0 1017451
19 april, mon
mon1923:00+16n610245 0.0 1020321
02:00+14nne3433100 0.0 102168
05:00+13nne333458 0.0 102027
08:00+13e34359 0.0 1021129
11:00+18ene23255 0.0 10221205
14:00+21n22170 0.0 10201786
17:00+22n32140 0.0 10171852
20:00+19nne11160 0.0 101711